Wind_Speed
6 6 7 7 7 8 8 8 9 9 8 8 7 7 7 7 8 8 7 8 8 7 5 2 1 4 5 5 5 5 5 5 5 6 6 4 4 4 3 3 3 4 4 4 4 3 2 3 5 7 7 6 5 3 2 2 3 4 2 3 3 2 2 2 5 4 1 0 5 10 14 12 7 10 13 9 11 13 11 17 20 21 25 25 19 14 11 12
5 5 6 6 7 7 8 8 9 9 9 9 9 8 8 8 8 8 7 7 7 7 6 4 2 3 5 6 6 6 6 6 7 9 8 6 6 5 4 3 2 2 2 2 4 4 5 6 5 8 8 6 4 3 2 0 1 2 1 3 4 1 1 1 3 4 2 0 3 8 12 13 7 8 12 9 9 12 12 14 19 21 24 28 27 21 17 15
4 4 5 5 6 6 7 7 8 9 9 10 10 10 10 10 9 9 8 8 7 7 6 6 4 3 3 6 7 8 8 8 10 10 9 9 8 7 6 4 2 1 1 2 2 4 7 5 4 8 10 6 4 4 3 1 1 2 2 4 3 0 2 3 5 5 6 3 2 5 11 12 9 8 10 9 8 10 14 14 14 20 27 30 30 28 24 20
4 4 4 4 5 5 6 7 8 8 9 10 10 11 11 11 11 11 10 10 9 8 7 6 6 5 4 5 7 8 9 9 11 12 11 11 10 8 7 6 3 1 1 3 3 4 7 3 4 8 8 4 3 4 2 2 1 2 3 4 1 1 2 3 5 6 8 7 3 4 8 10 10 10 11 8 8 10 17 22 21 24 28 28 30 30 29 26
5 5 5 5 5 5 6 6 7 8 9 9 10 11 11 11 12 12 12 11 11 10 9 8 7 6 5 4 5 6 6 4 6 10 12 12 11 9 9 7 6 3 2 3 4 4 6 3 6 8 6 3 3 4 2 2 2 3 3 2 1 2 2 1 3 6 8 7 5 6 6 8 9 12 14 12 11 11 13 21 24 25 26 26 27 27 29 30
7 7 6 6 5 5 6 6 7 7 8 9 10 10 11 11 12 12 13 13 12 11 11 10 8 7 6 5 5 6 6 3 1 6 10 12 11 10 9 8 8 6 4 4 5 4 5 2 6 7 4 2 4 3 2 4 3 3 3 2 3 5 4 2 2 4 7 8 7 7 6 7 8 10 13 18 23 21 15 17 18 18 22 24 25 26 28 31
9 8 8 7 7 6 6 7 7 8 8 9 9 11 11 12 12 12 13 13 13 12 12 11 10 9 7 6 6 6 10 10 6 6 8 11 12 11 10 9 9 8 6 5 5 4 5 2 4 7 4 2 4 4 2 4 5 4 3 2 4 7 8 6 4 5 6 8 8 6 6 7 9 7 7 19 33 31 26 25 22 19 19 20 23 26 28 30
11 10 10 9 8 8 8 8 8 8 8 9 9 11 12 12 12 13 13 13 13 13 13 13 11 10 9 7 6 7 12 14 11 11 11 12 13 12 11 10 10 9 7 7 5 5 5 3 3 6 4 1 4 5 3 3 6 6 4 2 3 6 9 10 9 9 7 9 9 7 7 7 10 7 8 25 37 33 32 31 28 27 23 21 23 25 27 30
13 12 12 11 11 10 9 9 9 9 9 9 10 11 12 13 13 14 14 15 15 14 14 14 14 11 9 8 7 6 10 10 9 10 11 12 14 14 13 11 10 10 9 8 6 6 5 4 4 4 4 2 5 5 4 3 3 5 3 1 3 5 7 8 9 9 8 8 8 7 9 8 8 8 14 29 32 27 28 28 29 30 29 28 26 26 28 30
16 15 14 13 13 12 11 11 11 11 11 10 10 11 12 13 14 14 15 16 16 16 16 16 15 12 9 8 6 5 7 7 6 8 9 11 13 14 14 13 11 10 9 9 8 7 6 5 5 4 5 4 5 4 4 3 1 2 2 4 7 8 7 7 7 7 8 8 8 9 9 6 3 3 11 16 13 12 14 17 23 26 29 31 30 29 29 30
18 18 17 16 15 14 13 13 12 12 12 12 12 12 13 14 15 15 15 16 17 17 18 18 15 11 9 8 8 7 9 9 7 8 9 11 13 14 14 14 12 11 10 10 9 8 7 7 5 2 3 3 4 3 4 4 1 0 2 6 8 9 9 9 9 7 7 6 7 7 8 7 2 4 17 17 11 10 10 12 17 21 25 27 28 30 30 31
20 20 20 19 18 17 16 15 14 13 13 13 13 13 14 15 15 15 16 17 17 18 19 17 12 9 8 10 13 13 13 12 11 10 10 11 12 14 14 14 12 11 10 10 9 8 7 7 5 3 3 3 3 2 3 3 1 1 1 4 5 5 7 7 5 5 6 4 3 3 7 9 8 14 26 23 17 15 12 15 17 19 22 24 26 29 30 32
22 22 21 21 20 20 19 18 17 15 15 14 14 14 15 16 16 16 17 17 17 18 19 16 11 9 8 10 14 14 12 12 12 12 12 12 12 13 13 13 12 11 10 10 9 8 7 7 5 4 4 3 2 1 2 2 1 1 1 3 4 5 5 4 3 3 6 3 3 2 7 8 11 21 28 20 18 17 14 18 20 21 22 23 26 28 30 31
24 23 23 22 22 21 21 20 20 19 17 16 16 15 16 17 17 17 18 18 18 18 18 15 11 10 9 10 13 13 12 12 12 13 13 13 12 12 12 12 12 11 10 9 9 8 7 7 5 4 4 3 2 3 2 1 1 1 1 1 2 4 2 4 3 4 5 3 6 4 7 10 8 14 17 16 19 17 15 18 21 24 24 25 26 28 31 31
26 25 24 24 23 23 22 21 22 21 20 19 18 17 17 18 18 18 18 18 18 18 18 15 12 10 10 12 13 12 12 13 13 13 13 13 12 11 12 12 12 11 10 9 8 7 6 6 5 2 3 4 3 3 3 1 1 0 2 3 2 3 2 3 4 5 3 2 7 6 5 11 12 7 9 14 18 17 17 18 20 26 26 26 27 29 31 31
28 27 27 26 25 25 24 23 23 23 23 21 19 19 18 19 19 18 19 19 18 18 17 14 13 9 8 10 11 11 11 11 11 11 12 12 12 12 11 11 10 10 9 8 7 6 5 5 4 3 3 3 3 3 3 4 3 2 3 5 2 4 3 1 4 3 3 2 7 9 6 8 10 4 6 11 14 15 17 19 23 27 28 28 28 30 32 31
29 29 29 28 27 26 25 25 24 25 25 23 21 20 19 20 21 20 20 19 18 17 15 13 10 7 8 10 10 11 11 10 9 10 10 11 12 12 11 10 9 8 7 6 6 5 5 3 3 3 3 1 1 3 4 6 6 2 2 4 4 4 4 3 2 3 3 3 7 10 9 14 15 12 14 13 13 14 17 24 30 30 31 31 30 32 34 33
30 30 30 29 29 28 27 26 26 26 26 25 24 23 21 21 22 22 20 19 16 13 11 10 5 3 9 13 13 10 9 10 10 11 11 11 12 12 12 10 8 7 5 4 5 6 5 3 2 2 2 3 3 4 6 7 5 4 4 5 4 5 6 6 3 3 4 4 7 9 11 17 20 20 25 23 18 18 22 28 31 31 31 32 32 35 36 35
30 31 31 31 30 30 29 28 28 28 28 27 25 25 24 23 21 20 17 15 12 7 6 7 9 4 4 8 12 11 11 13 13 13 13 12 12 12 12 10 9 8 5 3 5 6 4 2 2 4 5 7 8 9 11 6 3 5 5 5 6 6 8 6 2 2 3 4 9 12 13 18 19 19 24 26 18 18 25 29 30 28 25 28 32 35 36 37
26 28 30 31 31 31 30 29 29 29 29 28 27 25 21 15 11 10 11 13 14 13 13 12 13 14 13 10 12 14 15 15 14 13 13 13 12 12 11 10 8 8 6 4 3 5 4 3 6 9 9 8 9 11 8 2 1 3 2 4 7 8 9 6 3 3 2 4 11 14 14 18 20 18 21 25 18 17 24 25 29 28 22 26 31 33 36 38
24 25 26 28 29 29 29 29 30 30 29 29 27 23 15 9 6 7 10 14 17 18 20 21 21 22 24 21 21 21 18 14 14 15 13 13 13 10 10 10 7 6 5 3 3 3 3 6 11 11 6 2 3 5 3 1 2 4 5 5 6 7 9 4 3 3 4 3 9 10 12 17 19 18 21 23 15 19 29 25 27 27 22 28 32 32 35 36
23 24 24 25 24 23 24 26 27 29 28 27 25 20 15 14 13 12 11 13 19 23 22 24 25 26 28 26 27 28 20 12 14 18 16 15 16 11 8 9 7 4 3 5 4 2 4 10 12 4 5 5 3 3 5 6 4 4 3 3 6 5 5 4 3 3 4 4 6 7 10 16 19 19 22 23 16 23 36 30 27 27 23 27 30 31 33 33
23 23 24 25 23 20 20 20 21 22 23 23 21 17 14 14 13 13 11 8 16 23 23 24 25 27 28 27 28 27 21 15 14 19 20 18 18 14 11 9 6 2 4 8 8 5 5 8 5 5 8 7 3 3 6 5 4 5 4 5 7 2 2 5 1 2 4 4 6 9 11 14 16 17 19 20 16 22 32 28 28 30 28 28 27 29 31 30
23 23 24 25 24 20 18 18 17 17 18 17 17 15 13 12 10 10 10 6 8 15 20 23 22 25 27 25 25 22 20 19 14 14 20 22 18 12 11 9 5 4 6 10 10 9 9 3 5 7 5 7 4 5 7 6 5 6 6 8 9 4 4 6 2 2 5 4 3 8 11 10 9 10 10 6 5 13 19 19 24 32 33 31 27 29 30 29
22 23 24 25 24 19 17 17 15 15 14 12 12 12 10 8 7 6 6 6 5 7 13 17 17 22 24 22 21 17 14 16 17 14 16 22 21 10 5 7 7 7 8 8 8 11 9 3 9 7 3 5 5 5 8 8 5 5 8 12 12 7 5 3 3 4 5 4 1 3 10 7 3 5 5 1 2 7 8 9 17 26 27 24 26 28 27 26
22 23 23 25 24 19 16 14 12 11 9 8 10 9 8 5 4 4 4 4 5 4 4 8 10 11 13 15 16 13 5 8 15 17 15 19 23 13 4 6 5 4 4 7 4 5 3 3 5 4 5 6 6 7 7 8 6 5 4 7 9 7 4 2 1 2 5 4 0 2 7 9 3 6 6 3 4 6 5 6 11 21 25 21 22 24 22 22
20 22 23 23 22 18 14 11 11 9 6 8 9 9 8 6 3 2 2 5 6 5 6 7 7 8 9 10 15 12 2 3 8 14 19 19 21 16 8 6 4 2 4 4 3 2 3 4 3 4 6 6 7 7 6 10 7 3 1 2 4 5 4 4 4 4 4 4 3 3 5 11 8 9 11 9 10 9 10 13 12 18 30 30 24 23 21 21
20 21 22 20 19 16 12 12 12 10 9 8 9 11 8 8 6 3 1 7 3 7 6 6 7 8 9 12 19 12 1 3 4 9 19 19 18 13 8 8 4 4 5 4 6 2 3 5 7 8 7 7 7 2 6 12 6 1 2 3 4 4 3 5 3 4 2 4 5 7 8 9 9 7 7 8 11 12 13 18 15 15 26 30 25 22 20 18
20 21 21 20 17 13 11 11 11 11 11 8 10 12 10 10 6 3 1 6 1 5 4 7 8 7 8 11 15 11 2 1 1 6 14 15 15 9 4 6 4 3 4 4 5 1 2 3 5 7 7 6 3 4 1 7 4 3 5 5 6 5 4 3 2 3 2 4 7 9 11 7 10 6 8 2 7 11 12 13 13 13 19 24 23 20 16 15
20 20 21 20 16 12 10 9 11 12 12 12 13 14 13 10 4 1 6 5 1 2 4 7 7 6 10 8 7 8 4 1 2 8 9 7 11 6 0 4 4 2 2 3 4 1 3 2 0 4 5 2 5 5 4 1 3 7 6 4 4 3 3 1 1 0 4 7 7 11 16 12 10 2 9 5 6 10 10 8 9 11 15 21 22 19 15 16
20 20 21 20 17 13 10 7 11 13 16 16 15 18 15 7 2 6 8 2 1 1 4 5 3 6 10 6 2 5 4 2 5 9 6 4 7 5 3 4 3 2 2 4 5 2 2 2 2 3 4 5 6 5 5 4 3 4 3 2 1 1 2 2 2 2 6 7 2 6 13 14 11 4 7 6 5 9 9 8 9 8 12 21 23 19 16 18
21 20 21 21 19 14 9 7 11 15 18 17 18 19 12 2 4 7 3 3 0 4 4 3 3 5 7 3 1 4 2 2 6 7 4 3 5 6 6 5 5 3 4 6 5 1 3 4 2 2 5 8 5 4 4 2 2 4 3 3 2 3 2 3 3 4 6 6 2 3 4 9 14 11 6 5 4 8 9 8 9 7 11 21 23 18 17 20
22 21 21 22 20 16 9 7 11 17 19 19 20 14 5 4 8 5 4 3 2 1 2 2 2 3 4 3 2 2 1 1 5 5 2 2 4 6 6 4 2 2 3 4 3 2 3 1 4 4 3 10 12 7 5 4 6 9 7 6 5 4 2 5 5 3 5 4 3 4 2 6 11 9 11 15 13 13 13 15 18 15 15 18 18 16 18 21
23 22 24 23 22 18 11 8 12 19 21 22 18 7 2 10 8 3 7 10 3 2 3 3 3 3 3 2 2 2 3 3 5 5 3 3 4 6 7 7 5 3 1 2 2 4 5 5 7 9 4 12 17 9 2 4 7 8 5 4 5 4 4 6 5 5 6 4 2 4 3 5 5 1 7 13 14 16 16 22 27 24 21 18 14 15 19 23
25 24 25 25 25 22 15 10 13 20 24 22 12 3 6 12 7 3 7 6 3 1 2 2 3 4 4 2 1 3 5 3 4 4 4 6 6 5 6 8 9 5 3 3 2 3 6 7 4 4 2 11 10 2 4 6 5 3 2 1 4 4 5 4 3 1 3 6 4 5 4 7 4 1 3 2 5 7 10 19 23 23 26 23 17 18 21 23
27 27 28 29 31 27 19 14 16 22 27 20 8 6 12 11 5 4 4 4 5 5 5 2 3 4 5 3 3 4 3 2 3 4 5 5 6 6 3 3 9 12 9 6 2 3 4 4 3 4 2 3 1 4 3 1 2 4 3 4 3 0 3 4 3 2 2 6 7 4 6 10 7 4 6 6 6 4 4 12 15 19 27 25 22 25 26 26
29 31 33 36 37 31 23 19 18 24 27 17 8 10 9 7 3 4 2 3 4 6 7 5 5 6 5 3 4 6 5 3 4 5 4 4 5 7 6 3 8 15 17 11 3 3 4 2 1 3 0 1 3 3 2 3 1 4 4 5 3 2 0 2 3 1 2 7 7 5 10 13 10 5 4 7 8 6 8 12 11 14 19 19 25 34 34 32
35 36 38 43 42 35 27 21 20 25 21 10 13 14 6 3 4 5 6 6 3 4 6 7 5 5 6 5 3 6 7 5 6 5 5 4 4 6 9 6 9 16 24 19 6 2 3 2 2 1 1 3 2 1 2 1 1 1 2 2 1 2 3 3 2 3 6 7 7 12 16 15 11 6 2 6 10 10 12 13 10 11 12 14 26 35 35 33
40 34 33 41 42 35 28 24 25 27 17 7 12 13 6 5 5 7 13 11 4 4 7 8 6 4 5 6 2 5 8 7 7 6 6 5 5 5 10 8 8 14 22 21 9 2 3 4 3 0 2 2 2 4 6 5 3 0 2 2 2 2 2 3 2 2 5 6 8 14 17 14 6 5 4 6 9 11 11 10 11 12 13 18 27 33 33 32
40 24 20 33 36 32 30 27 26 22 12 8 12 9 4 3 5 13 20 15 5 5 7 6 6 6 5 4 1 3 7 6 6 6 5 5 4 4 9 8 4 5 11 13 8 2 3 4 5 1 2 2 4 7 9 9 8 6 5 6 5 2 1 2 2 2 3 5 7 9 13 14 2 7 4 4 6 8 8 8 9 10 16 25 32 33 32 31
37 14 14 28 28 30 35 27 17 13 7 8 12 10 7 5 5 10 18 18 11 6 5 4 6 8 8 5 2 3 5 4 6 6 4 6 6 4 9 13 8 7 6 4 5 4 3 4 6 3 2 5 5 3 3 3 3 6 7 8 9 7 4 3 5 3 1 5 7 5 10 16 4 6 3 3 4 4 6 7 7 9 20 31 35 34 30 28
27 9 13 23 24 34 38 20 10 11 7 9 11 8 8 8 6 7 12 16 12 6 4 4 5 7 8 7 4 4 5 5 6 7 5 6 9 7 10 17 17 15 10 3 4 5 3 2 5 6 5 4 2 2 1 2 2 2 4 5 7 7 6 7 7 3 2 4 5 1 7 14 3 6 2 3 5 4 7 9 7 11 23 31 32 32 27 25
22 13 14 20 27 41 34 9 7 11 7 10 11 9 10 9 5 5 8 11 8 5 5 5 5 7 8 7 4 5 6 6 7 7 4 4 9 12 11 17 18 13 6 2 2 3 3 1 4 5 4 2 1 2 2 0 1 3 6 6 6 7 9 7 4 1 2 5 5 3 6 14 3 6 1 1 4 4 8 11 9 12 22 28 28 28 25 24
21 15 15 23 36 44 27 6 8 12 9 9 9 11 13 9 7 8 8 9 9 6 7 7 7 8 8 6 6 8 8 7 7 8 7 6 7 9 14 22 21 10 6 7 7 8 7 3 4 4 5 5 3 3 3 3 4 5 5 7 9 10 10 4 2 1 4 12 12 6 9 14 5 4 2 3 3 4 6 10 12 13 19 25 27 26 24 26
13 8 13 30 45 43 22 8 7 8 11 13 12 14 13 8 10 16 14 12 11 8 7 7 6 6 6 4 6 10 10 10 10 6 7 8 3 2 10 22 24 15 10 11 12 13 9 4 7 8 9 10 10 10 5 4 6 5 4 9 13 15 17 10 4 6 10 13 12 9 13 15 11 10 9 6 6 6 5 7 12 17 20 23 26 26 28 29
8 4 4 18 34 35 22 14 8 3 8 14 11 11 13 10 8 12 14 14 15 11 5 3 1 3 5 5 7 12 12 13 11 5 5 7 3 2 3 14 20 15 9 9 12 11 4 4 12 15 15 14 15 16 6 6 7 7 7 13 15 18 20 13 7 11 9 4 8 14 18 17 16 21 23 19 15 12 8 7 10 17 24 26 26 29 33 33
7 5 6 9 16 19 17 17 13 5 5 10 6 5 14 16 9 6 9 12 15 14 7 2 3 5 7 10 12 14 15 14 11 11 13 11 4 0 0 6 13 11 4 3 9 8 1 5 13 18 21 20 20 24 16 7 10 10 10 14 16 17 19 16 17 14 5 3 10 19 19 17 16 21 27 28 22 14 10 11 13 17 21 22 24 30 33 34
10 6 13 18 12 6 9 18 20 13 9 9 7 6 12 16 13 10 10 8 7 11 8 5 10 14 16 17 15 13 14 12 11 13 16 14 8 3 1 2 6 8 5 2 4 5 2 7 12 15 20 20 19 24 22 13 10 10 10 13 14 17 20 22 23 16 9 10 16 16 18 19 16 21 28 26 19 13 12 16 19 19 19 20 23 29 32 32
16 10 12 21 15 10 21 32 28 18 15 12 8 8 12 16 17 16 10 3 1 9 12 10 14 20 23 22 15 11 11 10 11 12 12 13 11 6 4 4 3 5 5 3 3 3 3 7 13 15 17 18 18 21 22 16 10 9 11 10 11 18 22 21 19 17 18 21 16 11 17 20 18 23 26 23 22 21 20 24 27 26 28 30 30 33 36 35
17 12 8 14 15 13 24 31 22 12 13 14 11 10 13 17 21 18 11 9 8 8 11 16 21 21 20 20 17 13 14 15 16 15 12 11 9 5 5 6 2 2 2 3 2 3 5 8 12 13 12 15 19 23 24 19 15 15 15 12 17 24 22 17 16 16 17 19 15 13 15 16 19 23 22 23 27 24 21 26 30 31 33 33 32 35 38 36
22 22 18 13 9 10 14 17 14 11 12 13 12 13 15 19 22 18 14 19 20 13 13 20 26 21 15 14 13 16 23 24 24 26 23 13 8 8 7 6 5 4 3 4 2 2 5 8 9 9 10 12 17 22 21 16 12 10 13 19 27 26 18 17 18 15 13 14 16 15 13 13 19 22 19 20 23 20 19 22 26 31 32 27 27 33 36 36
22 25 25 18 6 9 11 8 10 14 13 12 16 18 18 21 23 19 14 17 25 30 27 23 20 16 10 10 17 29 39 39 38 41 35 20 12 13 13 11 10 8 5 5 4 3 5 7 7 8 9 11 16 18 13 7 5 7 15 26 29 23 19 21 21 18 17 15 12 12 13 15 19 19 18 19 19 18 19 21 24 29 27 23 27 34 37 39
Wind_Direction
6 6 6 4 1 359 357 356 355 354 356 357 359 360 0 4 7 9 15 23 22 17 20 24 239 224 218 211 208 211 214 219 224 222 218 204 195 183 149 113 92 80 70 66 55 40 329 284 233 209 207 203 213 213 177 132 146 179 218 243 247 244 215 184 192 190 336 29 162 178 188 199 195 185 202 220 220 224 235 226 225 226 226 230 229 224 231 227
355 358 0 1 359 357 355 353 351 350 348 349 349 348 348 347 348 351 352 358 6 6 0 359 338 254 233 227 224 221 225 235 240 229 219 216 214 206 184 152 125 92 69 58 43 24 343 303 240 195 191 190 206 208 201 158 150 204 223 250 250 243 183 179 207 204 212 219 151 185 194 207 207 171 190 215 213 209 226 230 226 232 234 234 233 229 233 229
336 344 348 353 353 354 353 351 350 347 347 346 346 344 343 340 338 338 338 338 340 347 348 345 338 308 259 241 235 233 240 255 258 243 223 219 220 217 206 188 171 130 51 11 13 2 346 312 220 180 179 181 192 185 190 243 230 202 216 254 249 8 274 228 229 220 218 224 138 190 195 209 220 180 186 215 221 205 221 224 210 227 237 237 236 231 231 229
313 321 330 338 342 344 345 346 345 344 345 345 344 344 342 340 338 334 334 333 329 328 328 331 330 316 292 257 241 242 251 267 264 247 226 218 222 223 217 211 210 206 322 348 349 342 348 330 186 172 175 174 179 185 202 243 229 184 219 274 45 91 265 233 228 225 224 232 215 182 183 212 224 204 199 207 229 229 227 228 221 234 242 240 239 235 231 229
302 307 314 321 327 332 333 335 336 338 341 341 341 341 340 339 337 335 333 332 330 326 321 319 322 316 304 275 247 241 246 271 256 230 217 214 221 223 222 223 228 246 281 324 340 336 346 339 177 172 180 174 171 194 210 215 217 198 221 288 68 179 242 276 231 230 226 220 203 176 176 208 209 211 215 205 227 245 236 237 239 245 249 247 248 242 232 229
296 301 305 311 316 320 322 325 330 332 334 335 336 335 335 336 334 334 333 332 331 327 322 316 315 311 304 285 261 239 226 246 201 195 206 214 223 225 226 227 231 247 266 299 328 327 339 330 189 185 185 171 186 205 187 197 212 231 225 220 229 223 240 286 240 239 224 200 193 192 203 206 195 221 224 218 234 245 249 254 255 251 249 251 253 246 236 231
289 295 299 304 308 312 317 321 324 327 330 331 330 329 328 329 331 331 331 331 330 328 324 318 316 309 301 289 271 248 236 248 249 225 228 228 229 227 229 232 232 242 251 277 310 305 315 314 212 195 183 163 196 199 183 207 214 246 250 179 234 235 235 258 266 268 230 207 216 210 222 210 203 233 228 232 244 247 252 259 261 259 254 252 249 245 241 238
285 290 293 298 303 307 311 314 320 323 327 329 328 327 324 325 326 327 328 328 329 327 324 319 315 307 299 287 274 261 252 257 260 251 248 239 234 230 231 234 235 241 246 261 289 294 298 306 243 197 197 196 182 182 179 216 208 222 247 177 230 242 240 256 267 275 251 230 236 221 232 224 219 247 254 252 256 257 257 260 260 258 256 253 250 247 242 238
283 286 289 294 297 301 305 307 312 315 321 327 328 327 323 323 323 325 326 326 327 326 323 320 314 305 294 282 271 265 263 267 265 253 248 239 232 230 232 235 237 240 245 256 270 288 290 287 282 241 239 202 172 175 176 219 215 204 236 225 233 247 250 261 264 270 263 242 237 231 242 238 233 261 267 262 263 264 262 258 255 253 252 251 250 248 243 239
282 284 286 288 291 295 298 300 303 308 314 318 323 325 322 321 322 324 325 324 325 323 322 319 313 302 286 273 257 255 272 274 265 255 247 239 232 232 234 236 239 240 246 255 260 281 280 278 299 266 233 191 179 184 184 219 263 184 256 280 260 260 261 264 259 259 264 257 242 243 257 257 234 251 264 262 258 257 255 249 247 247 248 249 248 247 244 241
279 282 284 286 288 290 292 294 297 299 303 309 314 317 317 316 318 321 322 322 321 321 321 320 315 297 281 262 232 244 278 274 264 261 249 242 236 234 237 237 241 241 243 252 257 273 273 275 300 264 213 197 192 203 212 226 266 219 292 278 258 260 263 252 251 253 252 263 247 244 268 264 187 218 247 247 247 254 249 245 245 243 245 247 247 245 242 240
274 277 280 283 285 287 288 289 290 293 296 299 303 306 309 309 311 315 316 317 318 319 320 322 317 296 285 262 246 259 278 272 265 262 252 249 243 238 240 240 241 241 242 250 256 269 272 269 285 276 236 218 203 215 215 206 255 325 326 289 262 261 262 224 224 236 215 245 243 223 270 245 195 228 247 247 250 258 253 251 251 246 246 246 245 243 240 239
268 271 274 278 281 284 286 287 288 289 290 292 294 297 300 302 305 308 309 311 313 316 318 319 313 299 287 267 267 275 274 267 264 259 252 251 248 242 240 240 240 240 241 247 255 264 265 262 270 263 227 209 219 223 184 149 259 262 127 298 288 273 260 168 141 186 188 216 177 175 280 254 201 226 244 250 252 254 249 249 253 249 246 245 244 242 240 237
267 268 269 272 275 278 281 284 286 287 287 289 290 291 294 297 299 302 304 306 308 310 312 310 304 296 279 270 280 280 270 267 261 256 253 250 246 243 239 238 239 240 244 249 255 260 258 255 255 245 216 196 173 181 183 135 218 249 173 244 265 267 250 127 146 175 180 192 166 178 274 274 250 224 235 254 254 250 246 246 251 251 248 246 246 243 242 239
268 269 269 270 271 273 276 279 282 284 285 286 288 289 292 293 295 299 300 301 304 304 304 301 296 289 275 274 279 275 268 265 261 258 254 249 244 240 237 237 239 241 247 250 252 255 248 240 233 214 169 166 157 182 234 224 169 188 255 240 188 235 259 133 167 195 214 161 166 198 256 271 278 241 219 249 251 244 244 247 249 251 251 248 247 246 244 242
269 270 270 270 271 272 274 276 279 281 282 284 287 289 292 294 295 298 297 297 299 297 295 292 287 278 269 276 272 263 263 261 262 263 255 248 241 236 236 238 239 242 246 250 250 243 233 226 217 201 179 176 181 221 262 254 220 177 241 264 224 223 271 173 154 188 247 156 183 221 259 274 276 257 220 236 241 239 244 255 256 254 254 250 249 249 246 243
266 268 269 270 271 272 273 275 277 279 280 283 285 287 291 293 294 296 295 295 293 289 289 284 280 274 259 261 261 254 255 259 264 263 256 248 238 233 234 234 236 239 240 245 239 218 214 212 206 209 186 178 207 212 255 262 248 197 190 255 251 230 259 260 166 133 176 211 218 221 241 260 263 271 267 252 244 244 247 258 263 260 256 253 251 250 248 244
265 266 267 268 270 271 272 274 276 277 279 282 285 288 290 293 296 297 293 288 283 281 282 264 236 260 257 242 240 241 245 256 265 265 256 245 236 231 229 229 233 230 221 231 221 202 203 192 206 244 201 197 196 190 227 253 261 259 236 248 267 242 237 248 240 141 155 206 238 223 231 253 260 269 271 266 254 248 253 260 263 260 255 253 251 249 248 245
268 267 266 266 267 269 270 272 274 276 278 281 285 289 293 298 298 293 286 275 260 254 263 224 193 223 270 224 227 241 258 265 267 262 250 239 234 228 223 224 224 213 191 204 201 183 191 184 197 245 229 210 202 206 229 250 274 271 264 263 271 261 253 249 183 134 171 222 244 237 241 255 261 264 268 269 260 247 256 262 263 259 250 249 249 247 247 246
275 272 270 268 266 267 268 270 272 274 276 279 283 288 295 304 303 293 279 259 247 247 256 250 239 250 261 254 251 261 268 270 267 254 244 236 225 218 216 210 207 208 202 207 180 156 180 219 230 237 233 217 210 216 237 298 2 267 259 252 255 257 267 261 127 119 148 239 252 245 249 260 263 265 265 266 264 257 257 255 257 255 245 248 249 246 247 250
279 278 276 273 271 270 270 269 269 270 273 276 280 286 290 288 284 289 288 276 265 259 259 263 262 257 258 260 262 267 267 267 264 249 240 227 206 199 204 196 191 209 199 146 120 132 162 225 240 240 234 203 204 204 205 178 181 233 240 252 256 249 262 268 109 131 151 220 257 252 259 262 261 264 265 259 249 256 260 254 256 258 253 255 252 248 250 255
278 279 279 278 277 278 277 274 270 269 270 272 275 279 277 273 272 277 287 289 278 270 265 263 261 257 259 258 258 262 258 257 257 243 232 214 200 199 191 187 202 213 154 127 144 170 200 238 244 217 107 98 92 146 191 208 200 214 224 253 262 254 272 278 101 118 162 220 266 274 276 271 265 262 262 258 237 244 257 258 261 264 260 258 255 251 251 254
278 278 279 279 280 284 285 283 280 276 272 269 269 269 267 268 270 276 279 278 280 277 269 262 258 256 257 255 254 253 243 239 248 240 230 211 199 202 192 189 206 186 158 187 198 195 212 246 249 117 128 150 137 151 180 196 200 207 203 234 251 237 280 268 92 117 188 225 284 291 282 270 265 258 256 259 246 245 257 261 263 263 261 257 254 255 254 254
280 279 279 278 279 282 285 288 288 285 277 267 263 260 259 261 258 272 279 266 274 275 265 258 253 251 251 250 249 243 234 235 239 236 225 207 192 195 202 196 188 201 213 202 200 220 235 229 106 112 155 177 165 167 185 203 211 211 212 230 247 244 230 246 345 336 235 218 276 293 284 264 244 243 251 260 247 254 263 265 264 263 261 257 253 253 254 255
282 280 281 279 279 283 286 286 284 283 278 265 257 251 248 248 245 271 289 274 256 253 259 252 244 245 244 243 240 231 229 235 234 228 213 202 192 180 186 187 194 226 215 177 189 236 249 158 124 127 149 177 184 195 199 207 218 225 219 226 242 256 247 236 26 339 280 243 205 323 304 287 183 200 240 240 236 260 258 252 263 268 265 254 249 248 248 251
285 285 284 283 284 286 285 282 274 275 270 250 243 230 223 218 232 287 300 279 247 199 210 218 218 226 225 228 218 203 222 244 233 223 205 200 197 188 171 170 196 245 170 143 188 244 249 128 130 147 160 175 209 230 202 186 217 247 219 219 232 241 248 227 145 266 274 280 316 18 303 287 229 195 214 204 230 256 249 238 251 264 267 258 250 250 246 248
288 287 287 288 291 291 286 272 260 259 237 230 225 205 205 195 171 357 335 282 250 168 149 177 186 190 198 200 178 168 222 216 198 204 197 196 195 194 206 183 172 213 151 141 211 223 128 131 136 164 171 185 218 237 185 169 208 247 105 123 175 188 205 195 196 234 272 316 290 196 240 275 268 218 220 227 233 248 259 260 251 247 258 262 257 256 252 248
288 288 290 292 293 293 284 264 253 239 218 219 203 187 181 163 145 79 283 272 253 127 135 166 169 185 188 176 173 175 302 149 154 193 189 189 188 189 223 218 184 166 166 188 219 215 107 160 175 169 178 204 216 247 160 174 203 262 91 82 109 127 151 158 203 246 274 323 273 197 187 266 271 193 203 241 234 238 246 252 254 239 249 258 258 258 255 242
284 287 292 293 295 295 282 259 241 225 214 197 180 178 158 144 134 68 223 257 234 114 134 161 165 182 166 161 188 210 262 157 190 174 174 184 187 181 234 217 167 135 174 234 242 301 56 188 191 167 183 211 186 40 88 193 201 132 129 95 88 88 85 123 231 258 253 274 253 194 166 244 277 168 145 183 211 227 236 240 249 244 247 257 255 252 245 223
276 283 288 290 293 293 285 257 226 212 195 177 171 164 147 140 131 214 230 247 269 103 114 156 172 169 153 151 208 225 222 249 116 140 152 180 188 184 141 156 128 134 179 291 267 243 73 82 226 203 205 154 106 74 28 39 124 138 145 115 102 116 95 116 232 191 261 258 232 196 182 211 273 170 148 165 176 201 217 223 243 250 253 256 252 246 227 205
270 274 280 285 289 286 286 256 219 199 182 174 164 153 147 130 100 227 230 263 336 161 126 164 178 154 165 168 200 191 188 214 152 156 161 162 180 180 155 149 133 163 218 258 246 215 133 166 204 212 175 119 104 93 57 61 125 155 160 150 187 220 152 164 177 152 243 258 215 193 192 201 239 238 159 161 168 197 207 214 230 234 244 247 245 241 217 199
268 269 273 279 283 282 280 250 217 193 181 172 162 156 149 149 233 224 220 45 325 198 154 171 178 173 188 202 213 159 158 196 171 178 179 156 186 189 196 198 164 184 235 223 223 184 192 205 162 148 174 170 159 115 98 96 174 195 172 162 233 266 256 243 218 184 234 252 113 126 182 211 239 251 218 185 195 219 215 215 226 220 233 239 238 236 216 200
269 267 265 269 278 282 276 254 219 193 180 167 163 155 131 236 231 194 166 189 214 176 107 107 130 161 164 168 211 160 143 212 165 178 188 152 204 216 235 253 179 259 257 182 203 212 224 256 143 167 210 193 190 181 186 191 181 190 179 173 208 224 243 255 241 233 257 253 138 132 154 241 260 259 222 211 214 222 212 213 230 234 232 236 236 233 216 204
266 262 259 262 272 273 267 255 215 194 181 168 164 144 142 231 236 145 185 207 210 63 71 72 99 141 173 187 224 179 203 218 150 168 197 161 200 222 227 225 206 255 324 158 216 192 237 270 175 171 168 173 190 208 187 117 154 188 177 170 213 203 209 251 261 268 286 298 205 166 181 244 270 267 201 207 218 226 218 216 229 238 234 233 234 222 210 210
262 257 253 253 258 258 256 243 207 192 182 171 166 166 206 227 236 206 207 194 168 121 81 58 116 152 224 239 250 229 226 225 131 153 198 188 206 214 202 203 191 175 154 200 225 164 241 273 158 127 103 155 178 241 62 96 148 176 99 170 232 209 198 248 297 296 321 311 262 187 216 251 254 160 141 157 216 218 215 219 227 238 237 236 236 223 214 220
254 249 243 241 244 250 248 228 202 189 183 174 170 211 220 233 226 193 206 150 156 148 117 143 159 170 228 216 201 220 206 212 154 164 209 211 235 229 190 198 185 182 189 190 184 174 229 281 103 83 22 133 97 359 58 87 192 154 158 199 202 82 202 227 267 79 95 278 267 216 249 271 274 232 168 170 202 168 185 223 223 231 236 235 238 236 232 233
245 239 236 235 239 243 236 218 200 188 183 178 199 218 227 244 202 158 170 124 133 141 148 205 196 178 213 211 198 186 163 191 178 178 204 198 234 209 182 231 190 187 205 207 218 229 218 277 174 140 118 108 29 17 67 2 29 139 191 200 136 59 309 229 259 287 229 257 271 266 269 276 275 264 150 165 200 193 207 225 220 226 233 233 237 241 242 242
244 236 234 236 237 236 226 210 195 186 178 179 222 228 232 224 181 144 154 149 132 149 178 221 204 169 203 213 194 165 168 186 166 175 207 193 222 181 159 203 194 192 210 211 224 261 190 252 241 127 18 110 99 211 156 62 32 134 273 267 138 205 181 162 211 245 246 250 273 278 279 276 256 240 214 186 193 202 217 220 217 223 224 225 234 239 241 243
241 230 232 235 231 227 218 201 188 183 175 182 225 229 226 205 196 176 177 174 167 180 200 224 217 204 209 199 163 155 182 192 164 177 210 196 212 174 157 188 198 201 205 197 203 236 173 232 242 39 343 97 134 215 194 178 166 126 284 251 279 269 190 176 175 211 242 246 273 282 282 277 238 162 209 209 182 195 212 210 213 219 217 220 230 235 237 240
230 220 237 236 226 219 208 190 181 181 182 206 219 223 216 202 218 212 204 197 184 191 212 223 211 217 219 191 169 182 197 212 184 189 214 196 211 199 174 183 180 195 196 188 206 221 118 226 234 108 337 233 193 198 197 194 178 177 203 191 190 194 72 288 235 183 233 239 253 269 273 274 255 113 168 195 170 192 197 197 210 214 220 226 229 232 235 238
223 217 241 229 220 206 191 177 176 187 200 221 225 230 224 216 229 223 215 213 216 218 217 218 211 222 225 213 216 179 187 221 204 203 220 201 218 230 187 189 171 132 140 172 221 215 162 210 220 191 206 225 226 205 193 225 189 183 193 187 189 179 148 221 232 197 186 237 237 236 266 271 264 98 129 158 149 191 178 191 209 206 221 229 229 229 231 236
218 223 229 212 204 192 181 173 189 198 204 219 228 238 222 220 229 215 205 207 217 233 222 219 221 225 227 221 213 173 181 214 204 207 230 209 216 223 189 188 175 147 139 160 209 202 156 145 214 227 227 226 275 20 41 313 328 222 230 209 192 184 180 205 222 210 170 230 249 233 268 268 258 85 70 141 138 178 187 196 200 202 220 227 226 224 228 238
211 223 220 202 197 188 178 173 205 198 219 232 238 247 226 225 239 215 196 193 202 214 209 216 212 218 229 220 199 185 193 213 204 193 215 228 225 228 200 175 164 150 148 172 167 151 114 120 214 242 272 269 67 89 139 171 141 208 238 215 194 202 205 209 232 243 197 221 221 166 246 265 285 84 101 181 143 185 203 206 204 206 221 227 224 222 231 243
218 217 197 190 191 186 180 189 204 203 224 231 242 244 231 236 243 229 206 185 192 199 205 223 219 217 225 206 201 210 195 206 220 201 209 235 232 221 194 173 168 171 192 185 167 164 170 188 189 211 258 253 230 208 188 170 193 221 228 200 201 212 210 224 308 291 244 237 224 205 240 257 278 85 143 149 154 206 219 217 219 218 221 224 224 226 237 246
221 205 180 185 188 188 192 210 202 208 219 222 234 232 230 245 243 239 236 216 214 214 214 232 223 207 213 193 218 228 207 214 234 218 215 235 240 179 191 185 182 191 205 193 176 171 177 188 179 197 229 229 231 236 212 150 187 222 217 192 198 206 206 211 216 213 235 234 216 218 244 257 280 289 268 235 206 220 215 209 220 226 227 225 227 235 244 248
211 192 184 185 193 204 223 237 234 230 213 220 233 229 227 239 248 244 239 231 230 226 229 271 240 199 215 208 231 239 227 227 234 231 230 233 216 54 205 198 197 202 208 194 178 169 166 201 192 206 223 221 232 245 234 117 162 202 202 193 198 206 206 205 215 223 228 212 207 229 243 256 276 281 277 270 258 246 238 235 228 230 235 234 236 246 252 252
221 180 171 177 202 223 246 256 252 253 218 215 211 211 224 232 247 244 217 221 226 218 220 267 203 207 220 214 226 239 234 228 226 232 242 239 225 4 123 203 213 219 219 183 181 166 135 230 210 218 228 227 236 246 240 187 189 210 199 193 204 210 206 210 224 220 167 120 235 239 243 254 264 269 271 272 270 262 256 261 253 244 245 244 250 259 259 255
236 211 191 193 202 205 222 237 235 226 228 223 205 212 228 229 234 228 213 218 219 202 203 225 217 222 228 222 224 235 235 234 232 233 242 246 240 225 158 190 215 210 192 169 189 173 185 229 221 226 237 236 240 249 249 233 218 225 213 202 207 208 204 212 223 217 184 214 242 246 250 257 258 256 261 267 273 278 278 274 269 265 264 263 265 267 264 260
239 248 215 205 208 185 194 212 219 216 219 222 214 216 226 227 228 227 216 174 202 208 206 222 229 227 231 232 230 232 232 236 240 235 236 242 235 213 212 237 224 192 184 175 195 193 194 227 228 231 242 245 246 252 254 249 245 248 239 222 221 225 219 216 224 223 217 230 248 264 263 264 262 258 262 269 277 283 287 284 280 274 267 268 271 270 268 268
242 255 243 214 217 204 200 209 215 216 216 218 220 215 219 228 231 232 217 188 206 215 196 218 236 232 230 233 231 234 236 237 245 245 231 222 220 208 221 228 193 120 188 199 212 216 212 227 233 235 244 245 244 248 251 251 252 254 256 254 248 246 240 230 231 227 224 238 253 262 268 269 264 262 263 265 271 279 283 278 274 267 264 269 273 271 271 272
256 264 272 265 238 202 203 208 206 212 214 210 217 220 222 228 228 232 231 215 217 219 195 209 229 234 230 224 217 228 234 232 237 241 235 221 205 203 213 204 156 133 189 210 206 190 215 234 238 241 250 243 239 246 247 243 244 251 255 250 246 246 244 236 235 228 220 233 241 243 249 250 252 259 262 261 264 268 267 265 263 262 266 272 271 268 270 271
270 272 275 285 276 184 201 213 202 213 218 207 212 219 221 226 223 224 237 225 219 225 223 216 222 231 228 213 214 226 231 230 233 239 242 239 222 212 215 208 195 196 198 196 203 186 198 226 235 234 247 248 246 250 245 222 218 227 233 239 242 246 248 246 246 241 232 232 237 239 240 242 250 256 257 260 262 258 256 257 259 263 271 276 268 266 269 271
Height
1573 1573 1572 1572 1571 1571 1570 1570 1570 1569 1569 1568 1568 1567 1566 1566 1565 1564 1564 1563 1562 1561 1561 1560 1559 1559 1559 1558 1558 1557 1557 1557 1556 1556 1556 1555 1555 1555 1555 1554 1554 1553 1553 1552 1551 1551 1550 1550 1549 1549 1549 1549 1549 1548 1549 1548 1548 1548 1547 1547 1545 1544 1544 1542 1542 1543 1541 1540 1541 1543 1543 1543 1543 1546 1547 1548 1548 1548 1548 1547 1546 1546 1545 1545 1545 1545 1545 1545
1573 1572 1572 1571 1571 1571 1570 1570 1569 1568 1568 1568 1567 1567 1566 1565 1565 1564 1563 1563 1562 1561 1560 1560 1559 1558 1558 1558 1557 1557 1557 1556 1555 1555 1555 1555 1555 1554 1554 1554 1553 1553 1552 1552 1551 1551 1550 1549 1548 1548 1548 1549 1549 1548 1548 1548 1548 1547 1547 1546 1543 1541 1541 1540 1541 1541 1541 1540 1540 1542 1542 1542 1542 1543 1545 1545 1545 1545 1545 1544 1545 1544 1543 1543 1543 1544 1544 1543
1572 1572 1571 1571 1571 1570 1570 1569 1569 1568 1568 1567 1567 1566 1566 1565 1564 1564 1563 1562 1562 1561 1560 1559 1559 1558 1558 1557 1557 1557 1556 1556 1554 1553 1553 1554 1554 1553 1553 1553 1553 1552 1552 1551 1551 1550 1549 1548 1547 1547 1548 1548 1548 1547 1547 1547 1547 1547 1547 1544 1540 1540 1540 1540 1541 1541 1541 1541 1541 1542 1542 1542 1541 1542 1543 1542 1542 1542 1540 1539 1541 1540 1539 1539 1540 1541 1541 1542
1572 1571 1571 1571 1570 1570 1569 1569 1568 1568 1567 1567 1566 1565 1565 1564 1564 1563 1563 1562 1561 1561 1560 1559 1558 1558 1557 1556 1556 1556 1556 1555 1552 1551 1552 1552 1553 1552 1552 1552 1552 1552 1551 1551 1550 1550 1549 1548 1547 1547 1547 1547 1547 1547 1546 1546 1546 1546 1545 1541 1539 1541 1540 1539 1540 1541 1541 1541 1541 1541 1542 1542 1541 1541 1541 1541 1540 1536 1533 1533 1534 1534 1534 1536 1536 1537 1539 1539
1571 1571 1571 1570 1570 1569 1569 1568 1568 1567 1567 1566 1565 1565 1564 1564 1563 1562 1562 1561 1561 1560 1559 1559 1558 1557 1556 1556 1556 1555 1556 1555 1550 1549 1551 1551 1551 1552 1552 1551 1551 1551 1551 1550 1550 1549 1549 1548 1547 1547 1547 1546 1547 1546 1545 1545 1545 1545 1542 1540 1541 1541 1540 1539 1539 1540 1540 1540 1541 1541 1541 1540 1539 1540 1539 1540 1536 1529 1527 1529 1530 1532 1533 1533 1534 1535 1535 1536
1570 1570 1570 1569 1569 1569 1568 1568 1567 1567 1566 1565 1565 1564 1563 1563 1562 1561 1561 1560 1560 1559 1558 1558 1557 1557 1556 1555 1555 1555 1555 1553 1549 1549 1550 1550 1551 1551 1551 1551 1550 1550 1550 1550 1549 1549 1548 1548 1547 1547 1546 1545 1546 1545 1544 1545 1545 1543 1540 1540 1541 1540 1540 1538 1539 1539 1539 1540 1540 1540 1539 1538 1539 1538 1537 1537 1530 1525 1526 1528 1529 1531 1532 1532 1532 1532 1532 1532
1568 1569 1568 1568 1568 1568 1567 1567 1567 1566 1566 1565 1564 1563 1563 1562 1561 1561 1560 1559 1559 1558 1557 1557 1556 1556 1555 1555 1554 1554 1553 1551 1549 1550 1550 1550 1550 1550 1550 1550 1550 1549 1549 1549 1549 1548 1548 1548 1547 1546 1545 1545 1545 1544 1544 1544 1545 1543 1539 1540 1540 1540 1539 1538 1539 1539 1539 1539 1538 1539 1538 1538 1538 1536 1536 1531 1524 1524 1527 1526 1528 1529 1529 1530 1529 1529 1529 1529
1567 1567 1567 1567 1567 1566 1566 1566 1566 1565 1565 1564 1564 1563 1562 1561 1561 1560 1559 1558 1558 1557 1556 1556 1555 1555 1554 1554 1553 1553 1552 1549 1549 1549 1549 1549 1549 1549 1549 1549 1549 1549 1549 1548 1548 1548 1547 1547 1546 1545 1544 1543 1543 1543 1544 1543 1543 1542 1539 1539 1539 1539 1538 1538 1538 1538 1538 1538 1538 1538 1537 1536 1536 1536 1533 1524 1520 1523 1525 1525 1526 1526 1526 1527 1526 1526 1526 1526
1566 1566 1566 1566 1565 1565 1565 1565 1565 1564 1564 1564 1563 1562 1561 1560 1560 1559 1558 1557 1557 1556 1555 1555 1554 1553 1553 1553 1553 1552 1549 1547 1547 1547 1547 1548 1548 1548 1548 1548 1548 1548 1547 1547 1547 1547 1546 1546 1545 1545 1543 1542 1542 1542 1543 1542 1540 1539 1539 1539 1539 1538 1538 1538 1537 1537 1537 1537 1537 1537 1536 1535 1535 1535 1527 1517 1518 1521 1521 1522 1522 1523 1523 1523 1523 1523 1523 1524
1565 1565 1565 1564 1564 1564 1564 1564 1563 1563 1563 1562 1562 1561 1560 1559 1559 1558 1557 1556 1556 1555 1554 1553 1552 1552 1552 1551 1552 1550 1547 1546 1546 1546 1546 1546 1547 1547 1547 1547 1547 1546 1547 1546 1546 1546 1546 1545 1545 1544 1543 1542 1542 1542 1542 1541 1539 1539 1540 1539 1538 1538 1537 1537 1536 1536 1536 1535 1536 1535 1534 1532 1534 1535 1523 1512 1516 1518 1517 1518 1518 1519 1519 1519 1520 1520 1521 1521
1564 1564 1564 1563 1563 1563 1562 1562 1562 1561 1561 1561 1561 1560 1559 1558 1557 1557 1556 1555 1554 1553 1553 1552 1551 1550 1550 1550 1550 1547 1545 1545 1545 1545 1545 1545 1545 1545 1545 1545 1545 1546 1545 1545 1545 1545 1545 1544 1544 1544 1543 1542 1542 1542 1542 1541 1540 1540 1540 1538 1537 1537 1536 1535 1535 1535 1535 1534 1534 1534 1533 1531 1534 1532 1518 1511 1514 1515 1516 1516 1516 1516 1516 1516 1517 1517 1518 1518
1562 1562 1562 1562 1562 1561 1561 1561 1560 1560 1559 1559 1559 1558 1558 1557 1556 1555 1554 1554 1553 1552 1551 1550 1549 1549 1549 1548 1547 1545 1544 1544 1544 1544 1544 1543 1544 1544 1544 1544 1544 1544 1544 1544 1544 1544 1544 1543 1543 1543 1542 1542 1542 1541 1541 1541 1541 1541 1540 1538 1534 1534 1533 1532 1533 1534 1534 1533 1532 1534 1531 1525 1527 1521 1509 1510 1513 1512 1514 1514 1513 1514 1513 1514 1514 1514 1514 1515
1561 1560 1560 1560 1560 1560 1559 1559 1558 1558 1558 1557 1557 1557 1556 1555 1554 1554 1553 1552 1551 1550 1549 1548 1548 1547 1547 1546 1543 1543 1543 1542 1542 1542 1542 1542 1542 1542 1543 1543 1543 1543 1543 1543 1543 1543 1543 1542 1542 1542 1542 1542 1542 1541 1541 1541 1541 1540 1541 1539 1535 1533 1530 1530 1533 1533 1533 1533 1532 1535 1527 1513 1512 1510 1506 1510 1511 1510 1512 1511 1511 1511 1511 1511 1511 1511 1511 1512
1559 1558 1558 1558 1558 1558 1558 1557 1557 1556 1556 1556 1555 1555 1554 1553 1553 1552 1551 1550 1549 1549 1548 1547 1547 1546 1546 1543 1541 1541 1541 1541 1541 1540 1541 1541 1541 1541 1541 1542 1542 1542 1542 1543 1542 1542 1542 1542 1542 1541 1541 1541 1541 1542 1541 1541 1541 1540 1540 1539 1538 1535 1528 1528 1533 1531 1531 1532 1531 1535 1528 1510 1504 1506 1506 1509 1508 1509 1509 1508 1509 1507 1507 1508 1507 1508 1507 1508
1557 1556 1556 1556 1556 1556 1556 1555 1555 1554 1554 1554 1553 1553 1552 1551 1551 1550 1549 1548 1547 1547 1546 1545 1545 1545 1544 1541 1539 1539 1538 1539 1538 1538 1539 1539 1539 1540 1540 1540 1541 1541 1541 1542 1541 1541 1541 1541 1541 1541 1541 1541 1541 1541 1539 1539 1539 1540 1538 1535 1538 1537 1528 1527 1531 1530 1529 1531 1532 1533 1527 1510 1503 1504 1505 1506 1506 1507 1506 1505 1505 1504 1504 1504 1504 1504 1504 1505
1554 1554 1554 1554 1554 1554 1554 1553 1553 1552 1552 1552 1552 1551 1551 1550 1549 1549 1547 1546 1546 1545 1544 1544 1543 1544 1542 1539 1538 1537 1537 1536 1536 1537 1537 1537 1538 1538 1539 1540 1540 1540 1540 1540 1540 1541 1541 1541 1541 1541 1541 1540 1540 1539 1537 1537 1536 1537 1537 1532 1532 1534 1528 1526 1529 1530 1529 1530 1531 1530 1523 1510 1502 1502 1503 1504 1504 1505 1504 1503 1501 1500 1499 1500 1501 1500 1500 1501
1552 1552 1552 1552 1552 1552 1552 1551 1551 1550 1549 1550 1550 1549 1549 1548 1547 1546 1545 1545 1544 1543 1543 1542 1541 1542 1540 1537 1536 1535 1534 1535 1535 1535 1535 1536 1536 1537 1538 1538 1539 1539 1539 1540 1540 1540 1540 1540 1540 1539 1539 1539 1539 1538 1540 1539 1532 1532 1537 1533 1529 1530 1528 1525 1524 1528 1531 1530 1528 1528 1524 1512 1502 1500 1501 1501 1502 1503 1502 1499 1497 1495 1495 1495 1497 1496 1495 1496
1549 1549 1549 1549 1549 1549 1550 1549 1549 1548 1547 1547 1547 1547 1547 1546 1545 1544 1543 1542 1542 1542 1541 1540 1541 1542 1537 1533 1533 1532 1532 1533 1533 1533 1533 1534 1534 1535 1536 1537 1538 1538 1539 1539 1539 1539 1540 1539 1540 1538 1538 1539 1537 1536 1539 1535 1526 1527 1531 1530 1527 1527 1527 1524 1522 1525 1529 1530 1527 1525 1523 1513 1503 1501 1499 1498 1500 1500 1498 1494 1491 1490 1489 1490 1491 1491 1490 1491
1546 1545 1546 1546 1546 1547 1547 1547 1547 1546 1545 1545 1545 1545 1544 1544 1543 1541 1540 1540 1539 1539 1538 1537 1537 1538 1534 1530 1530 1531 1531 1531 1531 1531 1531 1532 1533 1534 1534 1535 1536 1537 1538 1538 1536 1537 1538 1538 1539 1538 1534 1532 1531 1529 1528 1525 1523 1525 1527 1527 1527 1525 1522 1520 1522 1525 1527 1529 1526 1522 1518 1509 1503 1500 1496 1495 1496 1496 1493 1490 1486 1484 1484 1485 1486 1485 1485 1486
1543 1543 1543 1542 1543 1543 1543 1544 1544 1543 1543 1543 1543 1543 1543 1543 1541 1539 1538 1537 1536 1535 1534 1534 1533 1532 1531 1529 1530 1530 1529 1529 1529 1529 1529 1530 1531 1532 1533 1534 1534 1535 1535 1534 1534 1536 1537 1537 1535 1529 1524 1522 1524 1524 1524 1524 1527 1528 1529 1530 1528 1525 1519 1514 1521 1527 1528 1527 1519 1514 1513 1506 1501 1497 1493 1492 1494 1492 1487 1483 1479 1477 1479 1479 1480 1480 1480 1481
1540 1540 1539 1539 1540 1540 1540 1540 1540 1540 1540 1540 1541 1541 1541 1542 1541 1538 1536 1534 1533 1533 1531 1531 1531 1529 1528 1528 1528 1527 1527 1527 1526 1526 1527 1528 1530 1531 1531 1532 1533 1532 1531 1532 1535 1535 1537 1535 1526 1518 1517 1520 1523 1524 1526 1528 1530 1529 1529 1529 1527 1525 1519 1514 1521 1527 1528 1528 1516 1511 1513 1505 1499 1495 1488 1487 1490 1486 1478 1476 1473 1472 1474 1474 1474 1474 1475 1476
1538 1537 1537 1537 1537 1537 1537 1537 1537 1537 1537 1538 1538 1539 1539 1539 1539 1538 1537 1533 1529 1529 1529 1528 1527 1526 1525 1526 1525 1525 1525 1525 1523 1523 1524 1526 1528 1528 1528 1529 1529 1528 1529 1532 1533 1534 1536 1529 1517 1515 1519 1523 1526 1528 1528 1528 1530 1530 1529 1531 1526 1521 1517 1515 1523 1528 1528 1527 1515 1511 1513 1501 1492 1491 1483 1478 1482 1478 1470 1470 1471 1468 1469 1468 1467 1469 1470 1473
1535 1534 1535 1534 1534 1536 1534 1534 1534 1534 1534 1535 1535 1536 1536 1536 1536 1536 1536 1533 1526 1523 1524 1523 1523 1522 1522 1522 1521 1521 1522 1521 1520 1519 1520 1523 1524 1526 1526 1526 1526 1527 1529 1529 1527 1531 1531 1521 1514 1518 1521 1522 1526 1529 1529 1527 1529 1528 1527 1528 1521 1517 1518 1515 1521 1528 1527 1524 1518 1516 1513 1497 1485 1482 1474 1471 1474 1472 1467 1468 1468 1465 1464 1463 1463 1465 1466 1468
1532 1532 1532 1531 1532 1533 1532 1532 1532 1531 1532 1532 1533 1533 1534 1534 1535 1534 1534 1532 1525 1519 1519 1518 1518 1518 1517 1517 1517 1518 1518 1516 1516 1515 1516 1519 1521 1523 1522 1522 1525 1526 1524 1522 1523 1524 1520 1515 1517 1521 1521 1521 1524 1528 1528 1525 1524 1525 1525 1522 1514 1514 1519 1516 1520 1525 1521 1521 1523 1518 1502 1480 1473 1473 1468 1468 1471 1469 1466 1466 1464 1459 1458 1459 1459 1461 1462 1463
1531 1530 1529 1529 1530 1530 1531 1530 1529 1530 1530 1530 1531 1531 1532 1533 1533 1534 1534 1531 1523 1516 1514 1514 1513 1512 1512 1513 1513 1514 1515 1513 1512 1512 1513 1515 1517 1519 1520 1521 1522 1520 1518 1521 1525 1522 1516 1516 1519 1521 1523 1522 1522 1523 1523 1521 1520 1522 1520 1516 1512 1513 1517 1520 1525 1525 1518 1516 1520 1519 1500 1472 1466 1470 1466 1466 1469 1467 1465 1464 1460 1456 1453 1455 1455 1455 1458 1460
1529 1528 1527 1527 1527 1529 1529 1528 1528 1528 1527 1529 1530 1530 1532 1532 1532 1533 1532 1531 1522 1511 1509 1510 1509 1508 1508 1509 1510 1513 1514 1510 1508 1509 1511 1513 1514 1516 1517 1518 1519 1517 1517 1521 1524 1520 1516 1518 1519 1519 1521 1522 1521 1519 1518 1519 1520 1519 1516 1514 1515 1516 1519 1523 1526 1525 1517 1512 1516 1521 1512 1485 1468 1466 1461 1462 1465 1463 1462 1460 1457 1455 1451 1450 1450 1451 1455 1457
1527 1526 1526 1525 1525 1527 1527 1526 1527 1526 1526 1528 1527 1529 1531 1530 1533 1533 1532 1532 1516 1500 1503 1506 1505 1504 1505 1506 1507 1510 1511 1506 1505 1507 1508 1510 1512 1514 1514 1513 1515 1516 1517 1521 1521 1515 1514 1518 1521 1519 1519 1521 1520 1514 1512 1516 1517 1515 1516 1518 1517 1518 1522 1524 1525 1523 1517 1517 1518 1516 1518 1502 1475 1463 1457 1456 1461 1461 1458 1455 1452 1452 1449 1446 1447 1449 1451 1453
1525 1524 1523 1524 1524 1524 1524 1524 1524 1524 1525 1525 1526 1529 1529 1530 1534 1531 1535 1535 1510 1492 1498 1501 1502 1503 1503 1505 1505 1505 1505 1503 1504 1505 1506 1508 1510 1512 1511 1509 1511 1513 1515 1517 1513 1509 1511 1515 1517 1517 1519 1518 1513 1509 1509 1512 1513 1515 1520 1521 1520 1521 1523 1523 1524 1522 1521 1525 1517 1507 1516 1508 1470 1455 1460 1459 1460 1460 1455 1451 1447 1446 1444 1443 1444 1446 1447 1449
1523 1522 1522 1522 1521 1522 1522 1522 1522 1523 1524 1524 1526 1528 1528 1532 1532 1531 1543 1536 1501 1488 1497 1498 1500 1502 1501 1505 1505 1503 1504 1503 1504 1504 1506 1509 1509 1510 1510 1509 1510 1512 1514 1513 1508 1507 1511 1513 1512 1513 1514 1510 1507 1511 1513 1511 1511 1517 1523 1521 1522 1525 1525 1526 1524 1521 1526 1527 1512 1500 1510 1503 1459 1440 1458 1466 1462 1457 1450 1445 1442 1439 1440 1440 1441 1442 1444 1446
1521 1520 1520 1520 1520 1521 1520 1520 1521 1521 1522 1524 1525 1527 1529 1531 1530 1536 1545 1526 1494 1491 1498 1497 1499 1500 1500 1504 1504 1503 1504 1503 1504 1505 1507 1509 1508 1509 1509 1509 1512 1512 1513 1514 1510 1509 1512 1513 1513 1511 1508 1505 1509 1516 1517 1516 1515 1519 1521 1519 1521 1524 1525 1528 1524 1523 1527 1513 1495 1488 1493 1497 1467 1437 1443 1453 1449 1445 1441 1440 1439 1436 1437 1437 1437 1439 1441 1443
1519 1519 1518 1518 1519 1519 1518 1519 1519 1519 1521 1522 1524 1527 1528 1529 1533 1537 1529 1505 1492 1495 1496 1496 1499 1497 1497 1499 1498 1501 1502 1502 1503 1504 1505 1507 1508 1509 1509 1509 1511 1513 1514 1513 1509 1509 1512 1513 1510 1507 1506 1506 1510 1514 1518 1520 1519 1519 1517 1514 1517 1518 1519 1524 1524 1529 1525 1497 1483 1484 1484 1491 1473 1439 1433 1436 1433 1435 1435 1435 1435 1434 1435 1434 1435 1437 1438 1441
1518 1517 1516 1516 1517 1517 1518 1518 1517 1518 1520 1520 1524 1525 1525 1532 1532 1522 1509 1498 1494 1492 1488 1493 1496 1495 1497 1496 1495 1499 1500 1500 1501 1501 1502 1504 1505 1504 1502 1500 1502 1508 1509 1506 1505 1505 1505 1505 1505 1504 1505 1506 1505 1509 1518 1522 1520 1518 1514 1513 1517 1516 1515 1517 1514 1516 1509 1487 1486 1494 1490 1484 1458 1430 1431 1433 1431 1433 1431 1432 1432 1431 1433 1432 1433 1435 1436 1438
1516 1515 1514 1513 1514 1515 1517 1516 1516 1518 1518 1520 1524 1522 1526 1532 1514 1496 1498 1497 1489 1486 1486 1490 1493 1495 1497 1496 1496 1498 1499 1498 1499 1500 1500 1502 1503 1500 1497 1496 1497 1499 1497 1499 1503 1503 1499 1498 1503 1505 1501 1500 1498 1499 1505 1509 1512 1512 1506 1508 1512 1513 1518 1512 1499 1498 1492 1480 1486 1498 1493 1475 1445 1424 1425 1427 1427 1428 1428 1431 1432 1430 1431 1431 1431 1434 1434 1436
1513 1512 1511 1510 1511 1513 1514 1515 1515 1516 1517 1520 1521 1521 1528 1522 1492 1481 1489 1486 1482 1486 1489 1491 1494 1496 1496 1495 1496 1495 1495 1495 1496 1499 1500 1502 1503 1499 1495 1495 1497 1497 1497 1500 1501 1500 1496 1487 1488 1493 1489 1489 1490 1487 1487 1493 1503 1505 1499 1501 1503 1500 1504 1499 1486 1484 1481 1475 1484 1498 1487 1456 1433 1421 1415 1417 1421 1423 1426 1430 1430 1429 1430 1430 1431 1432 1433 1434
1510 1509 1508 1506 1507 1509 1511 1513 1512 1514 1517 1517 1517 1521 1518 1498 1479 1479 1481 1477 1482 1486 1489 1492 1493 1495 1495 1494 1495 1493 1490 1491 1495 1499 1499 1498 1496 1490 1487 1487 1491 1494 1496 1499 1496 1497 1497 1480 1475 1485 1483 1484 1487 1485 1487 1491 1498 1504 1502 1503 1500 1490 1487 1489 1489 1491 1494 1489 1483 1484 1466 1430 1418 1418 1414 1419 1422 1422 1426 1427 1427 1428 1427 1428 1429 1429 1431 1431
1506 1505 1504 1501 1500 1503 1507 1509 1509 1511 1513 1513 1516 1514 1495 1472 1470 1476 1472 1472 1479 1481 1487 1493 1490 1492 1493 1490 1492 1492 1489 1490 1495 1497 1495 1495 1489 1484 1482 1479 1481 1486 1486 1488 1489 1490 1490 1480 1480 1489 1486 1488 1490 1488 1491 1490 1490 1501 1504 1498 1493 1489 1484 1487 1496 1502 1508 1499 1470 1457 1448 1424 1415 1415 1412 1419 1421 1420 1426 1424 1423 1425 1423 1426 1427 1425 1428 1428
1501 1499 1497 1493 1493 1497 1502 1505 1506 1508 1509 1510 1508 1496 1477 1466 1468 1471 1469 1472 1474 1475 1482 1483 1480 1484 1485 1482 1484 1488 1488 1489 1492 1491 1489 1490 1482 1474 1478 1476 1474 1477 1474 1475 1478 1477 1478 1477 1481 1488 1486 1490 1493 1491 1493 1492 1489 1496 1496 1488 1487 1492 1491 1489 1495 1497 1499 1495 1465 1444 1442 1426 1417 1417 1413 1417 1421 1421 1423 1420 1419 1421 1421 1424 1423 1422 1424 1425
1494 1493 1489 1485 1485 1491 1498 1502 1503 1505 1507 1508 1500 1483 1472 1469 1467 1467 1469 1471 1471 1473 1476 1474 1472 1474 1475 1475 1476 1483 1486 1484 1486 1488 1483 1481 1471 1460 1466 1470 1468 1470 1467 1470 1474 1473 1475 1476 1480 1490 1490 1490 1494 1492 1491 1492 1492 1491 1489 1487 1485 1486 1489 1492 1497 1492 1488 1489 1466 1442 1436 1419 1405 1409 1410 1411 1416 1417 1417 1416 1417 1418 1419 1420 1419 1418 1421 1422
1489 1488 1482 1477 1481 1488 1494 1497 1499 1503 1505 1503 1493 1477 1468 1466 1464 1465 1466 1466 1468 1470 1470 1467 1467 1469 1469 1468 1469 1477 1481 1475 1478 1481 1474 1471 1465 1454 1457 1460 1460 1463 1462 1468 1472 1469 1473 1474 1476 1489 1494 1491 1492 1490 1485 1485 1491 1494 1491 1490 1486 1480 1480 1483 1488 1482 1476 1478 1467 1448 1435 1404 1383 1393 1399 1399 1406 1408 1410 1412 1413 1414 1414 1415 1415 1415 1418 1419
1484 1483 1476 1472 1479 1486 1490 1493 1496 1500 1497 1488 1479 1468 1462 1462 1463 1463 1462 1463 1465 1465 1463 1463 1464 1465 1465 1466 1467 1469 1472 1469 1469 1471 1466 1462 1458 1452 1453 1453 1455 1459 1462 1467 1468 1466 1474 1474 1471 1486 1497 1490 1480 1476 1470 1466 1475 1486 1485 1484 1484 1483 1484 1483 1481 1476 1472 1472 1468 1463 1443 1396 1372 1386 1392 1393 1399 1400 1403 1407 1408 1410 1410 1410 1412 1412 1414 1416
1480 1478 1471 1470 1475 1480 1486 1491 1491 1491 1487 1478 1469 1462 1460 1461 1460 1459 1460 1462 1463 1461 1461 1461 1461 1460 1460 1463 1465 1463 1467 1468 1466 1465 1461 1457 1453 1449 1447 1447 1449 1456 1463 1469 1469 1466 1470 1470 1468 1477 1486 1477 1464 1460 1463 1460 1460 1466 1468 1469 1469 1472 1479 1481 1477 1475 1477 1470 1458 1461 1448 1396 1370 1385 1390 1392 1399 1398 1401 1405 1404 1406 1407 1406 1408 1408 1410 1412
1475 1472 1468 1468 1472 1474 1479 1482 1481 1482 1479 1470 1461 1457 1458 1458 1456 1456 1458 1460 1461 1460 1461 1460 1459 1458 1455 1456 1458 1459 1463 1463 1461 1461 1456 1450 1448 1443 1440 1442 1445 1448 1454 1462 1463 1459 1461 1464 1465 1465 1464 1462 1462 1464 1467 1466 1463 1463 1462 1460 1460 1462 1465 1467 1466 1466 1474 1470 1455 1463 1457 1400 1366 1383 1392 1392 1398 1398 1399 1402 1400 1402 1403 1402 1404 1405 1407 1409
1470 1468 1467 1468 1468 1469 1474 1476 1476 1476 1471 1462 1458 1457 1458 1456 1454 1454 1455 1457 1459 1458 1458 1456 1454 1454 1452 1452 1454 1456 1456 1454 1452 1453 1452 1448 1443 1437 1437 1441 1443 1445 1449 1452 1456 1458 1461 1463 1465 1463 1456 1456 1464 1468 1468 1468 1466 1464 1461 1459 1459 1459 1455 1455 1457 1456 1460 1458 1452 1465 1461 1405 1368 1382 1393 1392 1396 1397 1397 1398 1398 1400 1400 1400 1402 1403 1405 1406
1465 1465 1466 1467 1467 1466 1468 1469 1469 1468 1465 1461 1460 1458 1456 1455 1453 1451 1451 1452 1453 1452 1452 1449 1448 1448 1448 1449 1450 1449 1450 1449 1445 1443 1446 1444 1436 1433 1435 1437 1440 1442 1442 1443 1446 1452 1458 1460 1463 1469 1467 1461 1461 1461 1461 1466 1466 1459 1455 1457 1457 1456 1456 1457 1460 1463 1458 1444 1439 1451 1444 1401 1375 1385 1392 1392 1395 1395 1395 1396 1397 1398 1398 1398 1399 1401 1402 1402
1463 1463 1464 1465 1465 1463 1459 1458 1459 1460 1461 1461 1458 1455 1455 1454 1449 1447 1448 1449 1448 1447 1446 1445 1445 1445 1445 1447 1447 1445 1444 1443 1440 1439 1440 1438 1433 1432 1434 1435 1436 1436 1434 1436 1438 1441 1447 1450 1453 1463 1466 1461 1453 1443 1439 1450 1459 1456 1453 1454 1453 1453 1455 1454 1456 1461 1451 1433 1433 1439 1421 1392 1383 1386 1386 1388 1391 1391 1392 1395 1396 1396 1396 1396 1397 1398 1398 1397
1460 1460 1463 1465 1465 1460 1456 1455 1456 1457 1457 1458 1456 1454 1454 1452 1447 1445 1447 1447 1446 1446 1446 1445 1445 1446 1445 1446 1446 1443 1441 1440 1439 1439 1437 1433 1431 1433 1435 1434 1433 1433 1434 1436 1437 1439 1442 1440 1438 1441 1442 1440 1435 1427 1425 1434 1445 1448 1447 1447 1447 1445 1445 1447 1447 1443 1433 1430 1433 1425 1407 1399 1398 1392 1383 1380 1382 1384 1387 1390 1392 1392 1392 1393 1394 1393 1392 1391
1456 1452 1454 1459 1461 1459 1458 1457 1456 1454 1453 1454 1453 1450 1449 1449 1447 1447 1446 1444 1442 1443 1446 1445 1445 1445 1444 1444 1443 1438 1435 1436 1439 1438 1432 1428 1430 1433 1435 1435 1434 1434 1435 1436 1437 1440 1441 1437 1431 1429 1425 1423 1422 1419 1420 1427 1431 1433 1436 1439 1440 1439 1441 1444 1437 1423 1423 1433 1427 1408 1403 1410 1408 1396 1383 1373 1374 1379 1382 1384 1386 1386 1387 1388 1389 1387 1385 1385
1451 1445 1443 1445 1446 1448 1451 1449 1448 1449 1450 1450 1449 1446 1446 1447 1447 1446 1443 1441 1440 1442 1444 1443 1441 1440 1437 1435 1436 1434 1432 1435 1436 1433 1428 1427 1430 1433 1434 1434 1433 1433 1434 1437 1438 1438 1437 1433 1428 1426 1422 1420 1419 1416 1414 1419 1422 1424 1426 1429 1430 1432 1434 1433 1424 1417 1421 1422 1409 1397 1401 1407 1402 1391 1378 1369 1371 1376 1377 1379 1380 1381 1382 1384 1384 1382 1379 1378
1446 1441 1439 1439 1434 1433 1435 1435 1437 1441 1444 1445 1445 1442 1442 1442 1439 1437 1436 1439 1441 1439 1438 1438 1434 1432 1431 1429 1432 1434 1434 1434 1432 1428 1427 1427 1429 1431 1432 1431 1431 1433 1433 1434 1436 1436 1434 1429 1424 1424 1423 1421 1420 1416 1412 1416 1422 1422 1421 1423 1423 1420 1418 1419 1418 1417 1414 1407 1399 1399 1403 1400 1391 1379 1372 1371 1372 1371 1372 1374 1374 1374 1374 1377 1379 1377 1372 1372
1442 1439 1437 1436 1431 1428 1429 1429 1432 1436 1437 1440 1439 1435 1435 1434 1431 1429 1429 1431 1434 1433 1434 1434 1427 1424 1425 1426 1431 1433 1430 1428 1426 1421 1421 1424 1426 1429 1429 1426 1427 1432 1435 1434 1434 1434 1433 1427 1422 1422 1423 1421 1417 1413 1411 1415 1418 1418 1419 1421 1415 1406 1406 1412 1412 1410 1410 1407 1404 1407 1409 1400 1383 1371 1370 1372 1369 1369 1371 1370 1366 1363 1363 1369 1374 1370 1366 1366
1439 1437 1436 1433 1427 1425 1425 1424 1426 1428 1428 1431 1431 1427 1426 1424 1422 1423 1420 1418 1421 1422 1423 1423 1418 1417 1420 1424 1428 1427 1421 1418 1417 1412 1411 1416 1421 1424 1424 1423 1424 1430 1435 1434 1432 1433 1432 1427 1424 1424 1424 1419 1412 1410 1411 1414 1419 1424 1424 1414 1401 1395 1397 1398 1394 1395 1402 1405 1406 1409 1408 1393 1374 1366 1367 1366 1365 1367 1367 1362 1357 1354 1356 1364 1368 1362 1359 1360
1436 1434 1433 1431 1424 1420 1420 1419 1420 1420 1417 1417 1417 1415 1413 1411 1412 1417 1417 1412 1412 1411 1411 1411 1412 1414 1418 1420 1418 1412 1406 1405 1405 1405 1407 1413 1417 1418 1419 1420 1422 1425 1430 1431 1430 1430 1430 1426 1424 1425 1424 1417 1411 1411 1412 1418 1426 1425 1410 1392 1383 1385 1387 1383 1380 1383 1389 1393 1396 1396 1387 1374 1366 1364 1363 1361 1361 1362 1358 1354 1351 1349 1354 1361 1360 1354 1353 1351